loading
DOY 175 | 2024-06-23T18:44:06Z

THOR ABLESTAR DEB, 134

Orbit data source: Space-Track

THOR ABLESTAR DEB, 134 is space debris in LEO originally from a launch on Thu, 29 Jun 1961 UTC launched from the Air Force Eastern Test Range (AFETR). Debris objects in space refer to the collection of defunct objects orbiting the Earth. Examples of debris include non-operational satellites, rocket bodies, and fragments generated from explosions, collisions, or faulty payload assembly.

Loading next visibility...
Loading greatness...
THOR ABLESTAR DEB details
NORAD ID134
COSPAR ID
1961-015U
Orbit
LEO
Last TLE update20 hours ago
Origin
Flag of USUSAF SSD (US)
ManufacturerUnknown
BusUnknown
MotorUnknown
MassWet unknown, Dry mass unknown
Launch date (UTC)
1961-06-29 (63 years ago)
Launch vehicleUnknown
Launch site
Air Force Eastern Test Range (AFETR)
Object type
Payload
Rocket body
Debris
Radar Cross Section1.6 m², Large (>1 m²)
Predictive object data (real-time)
Latitude-50.2079°
Longitude109.36533°
Altitude878.942 km
Speed7.434 km/s
Apparent Right ascension20h 44m 25s
Apparent Declination-54° 33' 50"
Sunlit
Object is in daylight
Predictive observer data (real-time)
Local Sidereal Time05:53:19
Azimuth228.218° WSW
Elevation-58.127°
Doppler factor1
Orbital elements
Apogee961.89 km
Perigee841.17 km
Semi-major axis7,279.667 km
Eccentricity0.0082916
Inclination66.8812°
RAAN29.4916°
Arg. of periapsis349.3495°
True anomaly10.75899°
Mean anomaly10.5827°
Mean motion3.49443 °/min
BSTAR0.00014763
Period103.02 mins
Definitive object data (Epoch: 2024-06-22T22:23:11.51Z)
Latitude-0.00011°
Longitude142.10459°
Altitude845.904 km
Speed7.46 km/s
True Right ascension01h 57m 57s
True Declination0° 00' 00"
Sunlit
Object was in daylight at TLE epoch
TLE from 20 hours ago
0 THOR ABLESTAR DEB
1 00134U 61015U   24174.93277211  .00000136  00000-0  14763-3 0  9995
2 00134  66.8812  29.4916 0082916 349.3495  10.5827 13.97302495204490
Epoch: 2024-06-22T22:23Z
No data available

THOR ABLESTAR DEB Visibility forecast

Observer location: 39.9160978°, -105.1181434, 0m alt.

THOR ABLESTAR DEB is not visible in the next 10 days
Span
Click to sort rows by Start time (UTC) header in descending order
Start Az.
Max El. time (UTC)
Max El. Az.
Max El.
End time (UTC)
End Az.